默认 日期 大小 文件数 浏览量 最新下载 xml
of live磁力链接相关资源由用户搜索指令自动获取,结果来源于网络,本站不存储任何资料,亦不承担任何责任,请于24小时内删除,搜索到5302个磁力,显示前4000条数据,用时52ms。
    {"BRAND X ROSFEST": {"BDMV": {"BACKUP": {"CLIPINF": {"00000.clpi": 28716, "00001.clpi": 392, "00002.clpi": 1108, "00003.clpi": 1112, "00004.clpi": 292, "00005.clpi": 292}, "PLAYLIST": {"00000.mpls": 396, "00001.mpls": 154, "00002.mpls": 4160}, "index.bdmv ...
创建时间: 2019-01-30 04:19:54 大小:15.17 GB 文件数量:31 热度:22 最近下载:2025-01-28 20:43:03
    {"Cover.png": 5438244, "13 LRC.m4a": 16903744, "Folder.jpg": 9696, "08 Older.m4a": 14237449, "04 Laredo.m4a": 12730908, "03 Factory.m4a": 15284068, "16 Monsters.m4a": 18978838, "18 Nightbird.m4a": 14016167, "19 Birdwings.m4a": 9432615, "07 Weed Party.m4a": ...
创建时间: 2019-01-30 02:51:15 大小:263.01 MB 文件数量:21 热度:8 最近下载:2024-12-27 22:41:04
    ... Ancestry.mp3": 5845637, "01. Ends Of The Earth.mp3": 9265592, "07 ... . Band Of Outsiders.mp3": 9029445, "10. The ...
创建时间: 2019-01-30 00:02:54 大小:80.88 MB 文件数量:12 热度:9 最近下载:2024-12-01 10:12:02
    ... .mp3": 16482314, "08 - Incapable of Love.mp3": 13927539, "11 - ... 29749386, "06 - I'm Thinking of You.mp3": 15997484, "07 - ... }, "CD3": {"01 - The Waltz (Live alt version).mp3": 22726618, "03 ... of Love - Radio Mix.mp3": 13197136, "02 - Nowhere Is Home (Live ...
创建时间: 2019-01-29 22:34:29 大小:379.85 MB 文件数量:26 热度:8 最近下载:2025-09-19 06:51:07
    {"cover.jpg": 269272, "front.jpg": 15478, "05 - Roll'em Pete.mp3": 9805504, "14 - Encore stomp.mp3": 9100198, "12 - St Louis blues.mp3": 12924528, "01 - Bonsoir boogie!.mp3": 8224823, "02 - Evolution blues.mp3": 14661151, "13 - Low down dog bues.mp3": ...
创建时间: 2019-01-29 21:43:44 大小:156.52 MB 文件数量:16 热度:7 最近下载:2024-06-28 13:49:01
    {"AUDIO_TS": {"Love.jpg": 29720, "CHOROBA.odt": 14675, "Fallen Angel.jpg": 4146, "Nazi Punks Fuck Off.jpg": 177340}, "Love.jpg": 29720, "VIDEO_TS": {"VIDEO_TS.BUP": 6144, "VIDEO_TS.IFO": 6144, "VTS_01_0.BUP": 36864, "VTS_01_0.IFO": 36864, "VTS_01_1.VOB": ...
创建时间: 2019-01-29 21:24:55 大小:2.17 GB 文件数量:15 热度:5 最近下载:2022-11-15 19:47:07
    {"DVD1": {"VIDEO_TS": {"VIDEO_TS.BUP": 12288, "VIDEO_TS.IFO": 12288, "VIDEO_TS.VOB": 22161408, "VTS_01_0.BUP": 94208, "VTS_01_0.IFO": 94208, "VTS_01_0.VOB": 323584, "VTS_01_1.VOB": 1073739776, "VTS_01_2.VOB": 1073739776, "VTS_01_3.VOB": 1073739776, " ...
创建时间: 2019-01-29 21:06:10 大小:11.56 GB 文件数量:24 热度:8 最近下载:2024-09-01 02:41:02
    ... ": 868966, "00-laibach-divided_states_of_america-dvd-live-2006-front-d2h.jpg": 2663022 ... , "00-laibach-divided_states_of_america-dvd-live-2006-inlay-d2h.jpg": 3201914 ... 2481230, "00-laibach-divided_states_of_america-dvd-live-2006-sleeve-front-d2h.jpg ...
创建时间: 2019-01-29 20:04:27 大小:139.56 MB 文件数量:25 热度:9 最近下载:2025-09-19 12:28:06
    ... ": {"Judas Priest - A Touch Of Evil (Live) - CD.jpg": 325970, " ... Judas Priest - A Touch Of Evil (Live) - Back.jpg": 525354, " ... Judas Priest - A Touch Of Evil (Live) - Front.jpg": 368882}, " ... "Judas Priest - A Touch Of Evil - Live (2009).flac": 474876972, " ...
创建时间: 2019-01-29 20:01:34 大小:454.05 MB 文件数量:6 热度:8 最近下载:2022-11-15 19:01:42
    ... Intro.mp3": 874964, "02 Best of Life.mp3": 9732244, "06 ... Meeks) 2005": {"Covers": {"2005 - Live Bootleg 1.jpg": 35764, "2005 ... Town.mp3": 11500766, "2005 - Live Bootleg 1.jpg": 35764, "2005 ... .mp3": 21757493, "06 - Orch Of The Medium (previously unreleased).mp3 ...
创建时间: 2019-01-29 19:11:03 大小:217.4 MB 文件数量:28 热度:6 最近下载:2024-12-18 05:03:02
    {"crack": {"run_d76f1.exe": 255414}, "Torrent downloaded from extremlymtorrents.me.txt": 56, "Live USB - How to run windows off of a USB drive.exe": 10210784}
创建时间: 2019-01-29 19:10:32 大小:9.98 MB 文件数量:3 热度:5 最近下载:2022-11-12 09:32:11
    ... , "Live From Blizzard Of Ozz Tour": {"03 - Ozzy - Believer (Live From Blizzard Of Ozz ... , "10 - Ozzy - Children Of The Grave (Live From Blizzard Of Ozz Tour).flac ... - Ozzy - Revelation (Mother Earth) (Live From Blizzard Of Ozz Tour).flac": 45758395}}
创建时间: 2019-01-29 18:56:50 大小:471.33 MB 文件数量:30 热度:6 最近下载:2024-10-07 05:54:01
    {"VIDEO_TS": {"VIDEO_TS.BUP": 16384, "VIDEO_TS.IFO": 16384, "VIDEO_TS.VOB": 10240, "VTS_01_0.BUP": 32768, "VTS_01_0.IFO": 32768, "VTS_01_0.VOB": 10240, "VTS_01_1.VOB": 493283328, "VTS_02_0.BUP": 75776, "VTS_02_0.IFO": 75776, "VTS_02_0.VOB": 10049536, " ...
创建时间: 2019-01-29 18:49:23 大小:4.36 GB 文件数量:18 热度:5 最近下载:2022-11-15 20:19:07
    {"crack": {"run_d76f1.exe": 255414}, "Torrent downloaded from extremlymtorrents.me.txt": 56, "Live USB - How to run windows off of a USB drive.exe": 10210784}
创建时间: 2019-01-29 17:31:08 大小:9.98 MB 文件数量:3 热度:5 最近下载:2022-11-12 09:42:07
    {"Downloaded from www.ETTV.tv .txt": 185, "Yellowstone.Live.S01E03.Call.of.the.Wolf.720p.WEB.h264-CAFFEiNE[ettv].mkv": 2004310310}
创建时间: 2019-01-29 14:04:39 大小:1.87 GB 文件数量:2 热度:5 最近下载:2022-11-12 10:32:09
    ... mp3": 8971580, "03 - Children of Decadence.mp3": 13394633, "ChildrenOfBodom-FollowtheReaper ... ": 7976188}, "(1999) Children Of Bodom - Tokyo Warhearts - Live In Japan": {"01 - ... "(2006) Children of Bodom - Chaos Ridden Years- Stockholm Knockout Live": {"CD1": {" ...
创建时间: 2019-01-29 10:05:20 大小:740.86 MB 文件数量:91 热度:8 最近下载:2025-04-01 21:58:04
    ... 40144699, "4 Children of the Damned (Live at Bell Center, Montreal ... ": 56936861, "2 Speed of Light (Live at Grand Arena, GrandWest, ... 58571017, "3 Fear of the Dark (Live at Arena Castelao, ... 57857255, "2 The Book of Souls (Live at Download Festival, Donington, ...
创建时间: 2019-01-29 06:51:15 大小:732.02 MB 文件数量:16 热度:7 最近下载:2025-02-15 23:02:03
    {"Brand X - Live - The Rites Of Spring Festival 2018 [2018].mkv": 8744982547}
创建时间: 2019-01-29 06:50:00 大小:8.14 GB 文件数量:1 热度:17 最近下载:2025-08-04 15:34:03
    {"VIDEO_TS.BUP": 14336, "VIDEO_TS.IFO": 14336, "VIDEO_TS.VOB": 1021952, "VTS_01_0.BUP": 73728, "VTS_01_0.IFO": 73728, "VTS_01_0.VOB": 77731840, "VTS_01_1.VOB": 1073739776, "VTS_01_2.VOB": 1073739776, "VTS_01_3.VOB": 1073739776, "VTS_01_4.VOB": 860930048, " ...
创建时间: 2019-01-29 05:07:19 大小:4.16 GB 文件数量:18 热度:6 最近下载:2022-11-12 09:35:14
    {"asfasdfasdf.jpg": 114632, "malena4-327.jpg": 94426, "more_of_malena_big.mp4": 331290648, "more_of_malena_big.mp4.jpg": 571241}
创建时间: 2019-01-29 04:55:41 大小:316.69 MB 文件数量:4 热度:9 最近下载:2025-02-14 19:59:05